一网星座-0537星 (ONEWEB-0537)

导读 | 星芒AI

ONEWEB-0537 是 OneWeb 卫星星座计划中的一颗低轨通信卫星,旨在为全球提供高速互联网服务。该卫星采用模块化设计,搭载先进通信载荷,支持Ka波段和Ku波段传输。作为 OneWeb 扩展其全球覆盖网络的一部分,该卫星于2023年发射,运行在约1200公里高度的近极地轨道。其部署有助于提升偏远和农村地区的网络连接能力,推动数字包容性发展。

基本信息
目录编号:
56046
目录名称:
ONEWEB-0537
国际标识:
2023-043A
轨道中心:
EARTH
卫星名称:
一网星座-0537星
卫星全名:
一网星座-0537星 (ONEWEB-0537)
卫星状态:
在轨 (已飞行949 天)
发射日期:
2023-03-26 UTC
国别 :
英国 (GB)
星等 :
--
轨道信息
数据来源 国际轨道数据 AOE轨道数据
星历时间 2025-10-30T04:20:51+0800
11小时前
查看轨道信息
2025-10-27T10:00:00+0800
3天前
查看轨道信息
半长轴 7575.894km 7575.889km
偏心率 0.0001979 0.0002249
轨道倾角 87.900° 87.901°
近地点辐角 78.172° 80.947°
升交点赤经 274.649° 275.202°
平近点角 281.964° 143.797°
近地点 1196.259km 1196.05km
远地点 1199.259km 1199.458km
周期 109.373分钟 109.373分钟
每日圈数 13.165944 13.165955
详细信息
平衡模式:
三轴稳定
覆盖范围:
全球
运营商:
一网卫星公司
运营商所在国:
英国
制造商(研发单位):
一网卫星公司
制造商所在国:
英国
使用方式:
暂无
卫星简介
OneWeb卫星网络由648颗重约125公斤的微型卫星组成,运行在1200公里的轨道上。 每颗卫星都能够提供至少每秒8千兆位的吞吐量,以使用其高吞吐量的Ku频段有效载荷为家庭和移动平台提供互联网接入。该卫星仍在工作。
2D轨道图
3D轨道图
轨道高度分析图
轨道倾角分析图
轨道综合分析图
查看轨道综合分析图